Tracking 22454 objects as of 5-Mar-2021
HD Live streaming from Space Station
objects crossing your sky now

FREGAT R/B

Track FREGAT R/B now!


NORAD ID: 46736
Int'l Code: 2011-037ND
Perigee: 35,455.9 km
Apogee: 339,341.2 km
Inclination: 51.5 °
Period: 14,147.8 minutes
Semi major axis: 193769 km
RCS: Unknown
Launch date: July 18, 2011
Source: Commonwealth of Independent States (former USSR) (CIS)
Launch site: TYURATAM MISSILE AND SPACE COMPLEX (TTMTR)

Note: This is a ROCKET BODY
aabbcc
Your satellite tracking list
Your tracking list is empty




NASA's NSSDC Master Catalog

Two Line Element Set (TLE):
1 46736U 11037ND  21046.51336702 -.00003789  00000-0  00000-0 0  9996
2 46736  51.5431  87.4043 7841408 243.8170 357.6758  0.10178283   854
Source of the keplerian elements: AFSPC